This is the latest recevied weather packets stored in our database for station/object DP0GVN-13. If no packets are shown the sender has not sent any weather packets the latest 10 day(s).
| Time | Temp. | Humidity | Pressure | Rain* | Wind** | Luminosity | Snow |
|---|---|---|---|---|---|---|---|
| 1777825825 | -25° C | 78% | 992 hPa | - | - | 0 W/m² | - |
| 1777824012 | -25.56° C | 79% | 991.7 hPa | - | - | 0 W/m² | - |
| 1777822212 | -25.56° C | 78% | 991.8 hPa | - | - | 0 W/m² | - |
| 1777820412 | -25.56° C | 77% | 991.7 hPa | - | - | 0 W/m² | - |
| 1777818612 | -25.56° C | 78% | 991.6 hPa | - | - | 0 W/m² | - |
| 1777816812 | -25.56° C | 78% | 991.3 hPa | - | - | 1 W/m² | - |
| 1777815012 | -25° C | 78% | 991.5 hPa | - | - | 1 W/m² | - |
| 1777813212 | -25° C | 79% | 991.4 hPa | - | - | 1 W/m² | - |
| 1777811412 | -23.89° C | 80% | 991.5 hPa | - | - | 1 W/m² | - |
| 1777809612 | -23.89° C | 79% | 991.2 hPa | - | - | 1 W/m² | - |
| 1777807812 | -23.89° C | 79% | 991.2 hPa | - | - | 1 W/m² | - |
| 1777806012 | -23.89° C | 78% | 991 hPa | - | - | 1 W/m² | - |
| 1777804212 | -23.89° C | 79% | 990.6 hPa | - | - | 1 W/m² | - |
| 1777802412 | -22.78° C | 79% | 990.4 hPa | - | - | 0 W/m² | - |
| 1777800612 | -23.89° C | 78% | 990.9 hPa | - | - | 0 W/m² | - |
| 1777798812 | -22.78° C | 80% | 990.8 hPa | - | - | 0 W/m² | - |
| 1777797012 | -21.67° C | 78% | 990.9 hPa | - | - | 0 W/m² | - |
| 1777795212 | -22.78° C | 80% | 990.7 hPa | - | - | 0 W/m² | - |
| 1777793412 | -20.56° C | 77% | 990.4 hPa | - | - | 0 W/m² | - |
| 1777791612 | -21.67° C | 78% | 990.4 hPa | - | - | 0 W/m² | - |
| 1777789812 | -21.67° C | 76% | 990.5 hPa | - | - | 0 W/m² | - |
| 1777788012 | -21.67° C | 76% | 990 hPa | - | - | 0 W/m² | - |
| 1777786212 | -21.67° C | 76% | 990.1 hPa | - | - | 0 W/m² | - |
| 1777784412 | -21.67° C | 75% | 990 hPa | - | - | 0 W/m² | - |
| 1777782612 | -21.67° C | 75% | 990.2 hPa | - | - | 0 W/m² | - |
* Rain since midnight (hover to see other rain measurements)
** Current wind speed in m/s (hover to see current wind gust speed)